[新聞] 桃園特斯拉逆向超車!撞飛重機騎士

看板 Car
作者
時間
留言 176則留言,90人參與討論
推噓 29  ( 62推 33噓 81→ )
原文連結: https://www.ettoday.net/news/20200802/1775396.htm 原文內容: 記者楊淑媛/桃園報導 56歲的涂姓男子2日駕駛百萬進口電動車特斯拉Model 3L, 於8點47分行經台7線往大溪方向12公里附近時,疑因超越前車未注意對向車道車輛, 擦撞騎乘重機車的26歲李姓男子,涂男雖無礙,但特斯拉車身受損嚴重, 重機車則嚴重毀損,騎士險摔落邊坡,畫面超驚險,全案送調查中。 大溪警分局指出,該起車禍事故發生於大溪區臺7乙線12公里處附近。 涂姓男子(56歲)駕駛自小客,行駛大溪區臺7乙線,往大溪方向行駛, 行經事故地點因超越前車未注意對向車道車輛,不慎擦撞李姓男子(26歲) 騎乘重機車(往三峽方向),汽車駕駛涂民未受傷,車輛左後車燈破裂、 左車身刮傷。機車騎士李民左腳小腿挫傷,重機車嚴重毀損, 雙方駕駛酒測均為0.00mg/l。 大溪分局初步調查,涂姓男子駕駛自小客行經事故地點, 因超越前車未注意對向車道車輛,造成事故,警方呼籲駕駛人行駛道路 超車須符合規定,以維自身及其他用路人安全。 原文網址: 桃園特斯拉逆向超車!撞飛重機騎士「對折」卡邊坡 驚險畫面曝 | ETtoday 地 Follow us: @ETtodaynet on Twitter | ETtoday on Facebook 心得/說明:(30字以上) https://www.youtube.com/watch?v=CSpHz1_26sA
這場車禍是特拉拉跟重機兩大族群的對決 特拉拉超車超道對面車道去了 重機則是騎的很靠中間 當然重機是沒越線,只是他的位置正好對上特拉拉,重機閃避不及 這段影片都慢動作 這段影片有用一般速度放出來 大家也可依參考看看 https://www.youtube.com/watch?v=_IhSCije844
又一次的,重機又噴了 不過這次車撞爛了但沒人成為烈士 --
※ 發信站: 批踢踢實業坊(ptt.cc), 來自: 118.168.76.180 (臺灣) ※ 文章網址: https://www.ptt.cc/bbs/car/M.1596452654.A.4AE.html ※ 編輯: Sturmvogel (118.168.76.180 臺灣), 08/03/2020 19:04:55
1Fkutkin: 特粉喔08/03 19:06
2Ftowya: 標準行動垃圾 覺得別人一定會讓牠08/03 19:07
3Fru04hj4: 覺得自己加速很猛很強08/03 19:08
4Fchi17: 嗯嗯找不到地方嘴只好說很靠中間08/03 19:09
5Farickal: 重機感覺有點像路權鬥士08/03 19:09
6FEEERRIICC: 重機本來就可以騎裡面08/03 19:09
7FSEEDA: 垃圾車主08/03 19:10
8Fkutkin: 特斯拉自己右靠一點就沒事了08/03 19:11
9Fm996360: 白車四輪逆向應該就是主因了08/03 19:11
10Fhcshin: 這段路是不是要劃雙黃線比較恰當?08/03 19:13
11Fscelerisque: 特斯拉已經成為8+9飆仔的新寵了08/03 19:13
12Fneverfly: 那個位置換成普通汽車一樣會撞到啊,重機又沒錯08/03 19:13
13Fymca0135: 超車都不看的08/03 19:13
14Fhanchueh: 特斯拉啟動超車的時候重機還沒過彎出現08/03 19:14
15Fbankmimi: 重機事故+1 重機好危險08/03 19:14
16Fhanchueh: 啟動時是合規合法的 但是在進彎前沒完成就該縮回去08/03 19:15
17Fkutkin: 特車頭過了就應該靠過去呀08/03 19:15
18Fhanchueh: 沒縮回去就100%肇責08/03 19:15
如果有超速呢?
19Fhui51032611: 硬要嘴中間靠中線zzz08/03 19:17
難道他靠的是右邊嗎? 靠中線是事實,還怕人講嗎? 講事實也不行,有這麼玻璃嗎? 他沒越線,騎哪都可以啊 你崩潰啥?
20Fpippen2002: 垃圾重機不EY? 08/03 19:18
請勿歧視重機 ※ 編輯: Sturmvogel (111.71.115.192 臺灣), 08/03/2020 19:20:14
21FREDan25: 重機速度其實滿快的 08/03 19:19
不然買重機幹嘛
22Fangush220: 超速也是特斯拉超速 要超車的沒超速誰相信08/03 19:20
龜車超龜車,有可能不超速 ※ 編輯: Sturmvogel (111.71.115.192 臺灣), 08/03/2020 19:22:04
23FLonelyLouis: T牌不意外08/03 19:22
24FTapqou: 8+9漸漸從德國車轉移到TESLA了救命08/03 19:22
25FOKTCS: 還好騎士沒死 不然賠到哭啊08/03 19:24
26FREDan25: 買重機買的是路權 沒幹嘛08/03 19:24
27Feverybody: 逆向超車不就是不按遵行之方向行駛08/03 19:26
28Fbankmimi: 講三小逆向會撞就會撞 誰他媽管你騎中線 欠噓08/03 19:27
29Fmp60707: 笑死 靠中間 特粉?08/03 19:27
30Fkutkin: 超速頂多罰3000,你撞死人至少要關2年08/03 19:28
31Famou1030: 全台灣特斯拉才幾台,一天到晚出事08/03 19:29
32Fkutkin: 不要寄帖子給我,我沒空去08/03 19:29
33Fgx9900824: 國道遇過特牌秒切車道 08/03 19:29
34Fm996360: 台七乙速限40...你說那沒超速...可能嗎...08/03 19:29
35Fhanchueh: 不管特斯拉有沒有超速都是主要肇責08/03 19:30
36Fkutkin: 七乙誰沒超速 你跟我説比較快08/03 19:30
37Fhanchueh: 機車如果有超速可能有次要肇責 沒超速就0肇責 08/03 19:31
38Fgkkcast: 重機跑山就在飆啊,不意外啦08/03 19:31
39Fkutkin: 40誰沒超過08/03 19:31
40Fhanchueh: 反正特斯拉就是一個會被特別放大的牌子08/03 19:32
當然囉 別人討論技術性問題 油車的加油孔 你也可以去亂入特拉拉 巴不得大家知道特拉拉多屌 表示你喜歡被放大 我們當然放大
41Fhanchueh: 其他牌子就會變成轎車撞機車 08/03 19:32
42Finconspicous: 逆向超車有夠垃圾08/03 19:34
43Fnew71050: 叫二輪閃邊的意思08/03 19:34
44FChienFong: 說個笑話 只有特斯拉出事的時候牌子會被特別放大08/03 19:37
45FChienFong: https://imgur.com/K3u1jzJ08/03 19:37
※ 編輯: Sturmvogel (111.71.115.192 臺灣), 08/03/2020 19:40:16
46Facesslai: 這個事故對向是轎車,不超速下有機會往右閃一點。重機 08/03 19:37
47Facesslai: 就過灣速度拉起來,根本沒機會右偏,還是硬幹逆向超車 08/03 19:38
48Fm996360: 副教整天宣揚特有超跑般加速 出事又想要別人看待如豐田 08/03 19:38
49Fm996360: 一種不斷炫耀之後 又想要別人低調看你 這邏輯我不懂 08/03 19:39
https://i.imgur.com/BMrHHai.jpg
特拉拉掛牌數才六千多台 但是南征北討 東征西戰 戰力不遜任何人 是擁抱未來的新人類 重機路權鬥士剎利帝 專門用生命教訓對手 只要這兩個族群常常跑山 對決絕對不只這一次
50Fhanchueh: 逆向超車是合法合理的 但應該要在盲彎前完成 08/03 19:39
51Finconspicous: 只能說技術差,腦袋又裝大便08/03 19:40
※ 編輯: Sturmvogel (111.71.115.192 臺灣), 08/03/2020 19:48:16
52Fkutkin: 副教不就跟柯文哲一樣 愛嘴又裝受害者08/03 19:46
53Fkutkin: 車板受虐兒08/03 19:46
54Ffortis323: 逆向就是垃圾08/03 19:46
55FVANDAS: 騎中間也能被嘴08/03 19:46
56Fkutkin: 特斯拉自己車頭過不縮怪誰08/03 19:47
57Fups: 垃圾人開什麼車都一樣08/03 19:49
58Fsai1268: 技術有夠差的,沒十足把握還敢超車08/03 19:50
59Fthrombocyte: 騎中間也有事 你他媽要不要騎水溝蓋08/03 19:52
跟他講不要跟我講啊 我沒說他不能騎中間啊? 你崩潰啥? 又不是我騎中間的
60FLeeAnAn: 副教就是典型的自卑心理,非常害怕別人不知道特斯拉的好08/03 19:53
61FLeeAnAn: ,對於一點負面的聲音一定要辯駁到底,相信在座蠻多人都08/03 19:53
62FLeeAnAn: 有發現到了08/03 19:53
我只知道他心眼很小 講不過人就檢舉 真要被桶時會寫信給版主求饒 ※ 編輯: Sturmvogel (111.71.115.192 臺灣), 08/03/2020 19:56:11
63Fhanchueh: 自卑的人應該是根本不敢發言吧 你在重新定義自卑嗎 08/03 19:53
64Fhanchueh: 而且這邊有辯駁什麼東西嗎?就明顯是特斯拉駕駛的錯啊 08/03 19:54
65Fcheetahspeed: 特粉不意外 08/03 20:00
66FLeeAnAn: 副教,自卑的人為何不敢發言?這才是你對自卑的自行定義 08/03 20:01
67FLeeAnAn: 吧。自卑心理有好幾種,從你害怕負面言論的程度就顯現出 08/03 20:01
68FLeeAnAn: 來了 08/03 20:02
69Fhanchueh: 我都坦然面對 何來害怕?你才害怕不敢來車聚吧08/03 20:03
70Fhanchueh: 只敢在網路上發言 不敢來板上的活動 到底誰才自卑08/03 20:03
71Fhanchueh: 我只知道此文作者是講不過就口出穢言的人08/03 20:07
所以我用什麼文字罵你了? 你又說不出來 我用哪句話罵你了啊? 你每次都講不出來,是因為根本沒這回事嗎? 不如你把你給版主求饒的信說給大家聽聽 自己說過的話,講出來總沒問題了嗎? 不是很勇於發言嗎? 給版主求饒時發了什麼言?
72FLeeAnAn: 害怕車聚?你在講什麼?我去車聚你的自卑就會治好嗎?你 08/03 20:09
73FLeeAnAn: 就不會在背後耍小手段嗎?我有參加雙B車聚啊,特斯拉車聚 08/03 20:10
74FLeeAnAn: 我幹嘛去? 08/03 20:10
75Frrazer: T牌正常發揮08/03 20:11
76FErich: 「連最硬的零件"曲軸"都斷裂」,記者腦殘發言再添一筆。08/03 20:15
https://www.youtube.com/watch?v=CNCBBMsb8KM
重機連續殺彎 先右彎,再左彎 左彎後車在外側,順勢拉到內側後就被特拉拉擊落了 有人可以算一下重機殺彎時速多少嗎?
77Ftoeic900: 特粉水準就是這樣08/03 20:25
78Fhanchueh: 我是說板上車聚又不是特斯拉車聚08/03 20:28
79Fhanchueh: 髒話不需要重複 只要板上搜尋 Sturmvogel水桶08/03 20:30
80Fhanchueh: 就看得到你罵了什麼髒話08/03 20:30
所以用哪句話罵了你? 還是你根本舉不出來 你從來都舉不出來阿 搜尋是能搜尋什麼? 倒是你如何跟版主求饒的 讓大家知道一下阿 人家DYE,五個月水桶的重罪 可以寫信寫到勞動服務 你怎麼就沒辦法? ※ 編輯: Sturmvogel (118.168.76.180 臺灣), 08/03/2020 20:34:40
81FTonyAsa: 阿就逆向導致的事故啊 重機有夠倒霉08/03 20:34
82FAsakDAngel: 可憐哪08/03 20:35
你是指被撞爛的重機嗎? 我也覺得很可憐
83Fcolizz431: 大將軍對二輪正常發揮08/03 20:36
我這篇沒講啥ㄜ 不要自己崩潰 不要那麼敏感 我是有同情心的
84FCATpc: 其實就飛蛾撲火啊,對向超車自己反而加速想逼退特,車禍是08/03 20:42
85FCATpc: 特造成的但受傷是騎士自己造成的,標準的拿生命捍衛路權08/03 20:42
86Fdslite: 本來以為是有錢的垃圾 結果是model308/03 20:43
87Fmark0118: 重機又噴了 但沒人成為烈士 我感覺出一點幸災樂禍08/03 20:43
別這麼說 免得重機騎士玻璃心又受傷了
88Frelaxcloud: 對決什麼?好好騎車被撞也要被酸?08/03 20:44
我有說他沒好好騎車嗎? 說對決也不行? 是有這麼玻璃嗎?
89Frelaxcloud: 最好是有人出灣看到有逆向車會加速,被撞都要被酸08/03 20:44
所以你意思是他沒看到有車,所以出彎才加速?
90Frelaxcloud: 四輪大爺們有沒有這麼噁心08/03 20:45
沒有人說他沒好好騎車阿 你崩潰啥? 我只想知道他過彎速度多少而已 這也不行?
91Frelaxcloud: 還飛蛾撲火勒...什麼腦可以推出這種結論08/03 20:45
92Fvokey: 當成在玩GTA?08/03 20:47
93Fscoutking85: 重機完全沒違規也可以酸 不愧是納黑大將軍 版金嘴臉08/03 20:52
94Fscoutking85: 的最愛08/03 20:52
我有說他沒好好騎車嗎? 沒有阿 還是想知道過彎速度不行? 請問我哪一句說這重機不對了?
95Fasdhse: 垃圾車主,果然model3 要變8+9專用車了08/03 20:54
96FLexusNo1: 重機十個有十一個愛飆,不意外,騎那麼快活該。08/03 20:55
97FLexusNo1: 話說飆仔是不是開始從bmw轉移到特斯拉了xddd08/03 20:55
飆仔開ㄥ,能看嗎? 不夠潮阿
98Fjunshinw: 重機很衰08/03 20:58
https://imgur.com/rzfjF7i.jpg
行車分向線,用以劃分路面成雙向車道,指示車輛駕駛人靠右行車, 分向行駛。 本標線為黃虛線,線段長四公尺,間距六公尺,線寬一0公分。 照這圖來看,我對照影片從這一刻起 重機到了第四條黃線時跟特斯拉相撞 也就是距離有40公尺 我看重機走三條黃線花了一秒 就是線段三條,間距兩個 4*3+6*2=24公尺/秒 24*60*60/1000=86.4 KM/HR 似乎不慢 不知當時道路限速多少 ※ 編輯: Sturmvogel (118.168.76.180 臺灣), 08/03/2020 21:24:18
99FJayceYen: 垃圾四輪 還敢上國道?08/03 21:11
100Fmxr: 桃園台男不意外 水準跟中國人沒兩樣08/03 21:14
101Fl6333133: 8+9專用車 技術還很差的那種08/03 21:37
102Fmrnegativetw: 很多開車的智障都這樣阿 看對面二輪就硬擠08/03 21:55
103FLeeAnAn: 副教,為何要出席你指定的車聚才叫不害怕呢?我開雙B去雙08/03 22:01
104FLeeAnAn: B車聚,沒有問題吧?我說你害怕是指你害怕任何一點特斯拉08/03 22:02
105FLeeAnAn: 負面文字,你呈現的樣子就是這樣。其實不需要如此害怕,08/03 22:02
106FLeeAnAn: 我們雙B整天被酸有錢8+9、飆仔最愛、外匯車,有幾個像你08/03 22:02
107FLeeAnAn: 抵死辯駁的?我們一笑置之才叫坦然,是你就做不到08/03 22:02
重機可能買的是路權,買的是一個爽字 雙B車主買的是車 因為自己買的是車,所以用這種心態看副教主,看特粉 有時難以理解他們的想法 其實,如果把某些特粉的行為 不要當作他們是買車 當作是買信仰,是特斯拉神教 反而他們一些難以讓人理解的行為就突然可以理解了 很多新興宗教被人批評或質疑時 教徒不都一個樣? 當然教徒越少時,他們越有一種悲壯感 信誓旦旦認為的在未來 他們會越來越壯大 異教徒總有一天會後悔他們的言論 現實對他們來說只是一種考驗 達不到的理想終究會在未來實現,永遠都是未來 無視現實的客觀事實 反正一切在未來都會得到救贖 不認同的就是反動守舊保守派
108FNinjashin: 很多開車就賭對方機車會讓啊 反正不讓是你受傷而且有人08/03 22:02
109FNinjashin: 護航呵08/03 22:03
110Fcrocodileho: 樓上說的真中肯,本版被酸最厲害的進口車,我看就是B08/03 22:06
111Fcrocodileho: MW,也沒看到什麼B粉整天出來護航阿,光這一點來看,08/03 22:06
112Fcrocodileho: 特粉要多學學,別太玻璃08/03 22:06
113Fdixieland999: 影片真的身歷其境XD08/03 22:11
最後斷訊,也感同身受吧
114Fnoeybou: 純噓中天跟樓主內容08/03 22:15
ettoday是中天? ※ 編輯: Sturmvogel (111.71.115.192 臺灣), 08/03/2020 22:39:41
115Fap4318: 這種酸法蠻low的,還在那耍小孩子的脾氣08/03 22:56
116Fk7881683: 就是有那種三寶違規在先然後一直說別人超速,不知道有08/03 22:58
所以重機有沒有超速?
117Fk7881683: 沒有長耳朵聽到四輪的拉轉聲08/03 22:58
特斯拉馬達拉轉無聲 重機只能用看的 大約在40-50公尺前 ※ 編輯: Sturmvogel (114.45.16.28 臺灣), 08/03/2020 23:04:11
118FJoseCalderon: 機車事故+1 08/03 23:42
119FAudien: 可憐哪 08/04 00:06
120Fasukarei: 特粉最自豪的加速在這次超車竟然表現的不如預期 08/04 00:25
121Ffirfox: 敘述事實?要不要順便說一下他們都是用輪子的交通工具08/04 00:26
所以有那些敘述不是事實 你說出來讓大家知道一下
122Fqutar: 車道就擺在那邊 到底為啥還有人鞭重機騎太中間 神邏輯08/04 00:51
所以有誰在鞭重機騎太中間? 請勿過度腦補幻想 有那個ID鞭他騎太中間 請找出來 不要在這邊嘴砲幻想 騎中間是事實 有人說他不該騎中間嗎? ※ 編輯: Sturmvogel (114.45.16.28 臺灣), 08/04/2020 01:10:23
123Foligoisgood: 垃圾心得 可憐硬要嘴08/04 02:35
124FMagic0312: 重機崩潰噓我就推 08/04 02:40
125FMagic0312: 汽車族不會跑到重機板崩潰,但重機族整天聚眾在汽車板 08/04 02:43
126FMagic0312: 崩潰,那個族群比較可悲不言自明 08/04 02:43
重機囉 老是幻想別人在鞭他 可是我要他們舉證誰在鞭他 他們除了崩潰噓人外 什麼都講不出來 ※ 編輯: Sturmvogel (114.45.16.28 臺灣), 08/04/2020 02:51:30
127Fsmallreader: 山路愛飆,沒有防衛駕駛觀念,防衛駕駛觀念就是你一08/04 02:55
128Fsmallreader: 台車TMD這麼小,還衝那麼快,四輪哪看得見你。四輪都08/04 02:55
129Fsmallreader: 知道山路崎嶇有很多險坡,看到地上都寫用低速檔了,08/04 02:55
130Fsmallreader: 重機還在那邊衝衝衝,真是不見棺材不落淚,所有愛飆08/04 02:55
131Fsmallreader: 的人沒有摔一次撞一次,是都不會怕。反正摔之前享受08/04 02:55
132Fsmallreader: 到真正的速度快感了,就算殘廢也不枉此生了 :D08/04 02:55
133FA791027A: 給你推,戰力強又有邏輯,看一堆人崩潰覺得好笑XD08/04 03:14
134Fhunterjou: T車錯,但不推重機愛飆車,當賽道?噁 08/04 05:57
135Fsfchiaptt: 都初判特斯拉超車不當了…還有樓在檢討重機該騎哪兒! 08/04 07:10
沒人檢討重機該騎哪啊 有人檢討嗎? 之前一堆崩潰的 你能說出是誰在檢討 用什麼字眼檢討了嗎? 還是說重機騎到中間被撞 這種客觀事實敘述,在重機玻璃心眼中就叫檢討?
136Fsfchiaptt: 果然…教育是不等人的。 08/04 07:10
137Fblack82465: 一直扯重機靠中線跟超速 怎不扯特斯拉 ? 08/04 07:40
不能講重機被撞的位置嗎? 我沒說重機不能騎到中間啊? 你崩潰啥? 重機一秒跑三條線 換算一下時速也不行? 又沒人不準你講特斯拉 你可以去換算啊 在這崩潰嘴砲有用嗎?
138Ffakefate: 呃不是 為什麼私信版主的內容別人會知道 可怕08/04 08:02
我們不知道啊 所以才很好奇副教主是怎樣求饒的
139FJeff911: 好無聊,這明顯就是跨線責任大啊,想說什麼事可以吵一大堆08/04 08:15
140FJeff911: 重機只要在線內,基本上就沒啥問題.除了速度,就等裁決這樣08/04 08:16
141FststLiang: 怪了 兩個都不閃也不急煞08/04 09:11
142FXesLana:08/04 09:23
143Fhanchueh: 特斯拉要看到重機很難吧 背景跟機車一樣都是深色08/04 09:25
144Fhanchueh: 本來就不該在看不見來向車輛的地方超車08/04 09:25
145Fyesyesyesyes: 100%是特斯拉的錯08/04 09:29
146Fmaniaque: 新聞有寫道:車友說: "特斯拉車主在車上吹冷氣等拖吊"08/04 09:59
這是特粉最稱讚的功能 一晚上只掉10%電 當然先吹再說
147Fmaniaque: 好像整起事故跟自己毫無關聯,重機騎士躺在地上哀哀叫08/04 10:00
148Fmaniaque: 等救護車,特斯拉車主在車上開冷氣吹爽爽等拖吊.....08/04 10:00
149Fmaniaque: 副教主你在說三小? 盲彎可以隨便超車歐????08/04 10:01
150Fphuckerc: 在那扯重機超速,特超速又逆向超車你怎麼不說?08/04 10:02
你可以去說啊 沒人不準你說 所以你認為重機有超速嗎?
151Fmaniaque: 會超車,還不就是你們這種自恃0百3 4秒,才這麼目無法紀08/04 10:02
152Fmaniaque: 還要繼續為你的教徒護航,會不會太噁心了???08/04 10:02
153Fmaniaque: 你要不要乾脆說..."特斯拉上路,油車就得通通讓路"???08/04 10:03
154FHibiki0130: 就沒看過汽車被逆向撞然後被說開在靠近中間08/04 10:07
所以請問重機在哪被撞? 在右邊被撞嗎?
155Ften9di9: 特斯拉技術這麼差應該斷手斷腳不給上路08/04 10:07
156Ften9di9: 逆向超車撞到人應該是沒帶腦,應該斬首08/04 10:08
157FststLiang: 看到有車還硬要衝才是有問題08/04 10:22
158FststLiang: 加速兩台都很快08/04 10:22
159FststLiang: 但是兩台也都有煞車這種東西啊08/04 10:22
理論上他們也有腦這種東西
160Fhanchueh: "看不到來車不該超車" 怎麼會變成 "盲彎可以超車"08/04 11:02
161Fhanchueh: 這抹黑也太誇張了吧08/04 11:02
162Fhanchueh: 我從頭到尾都說是特斯拉駕駛的錯 怎麼有人一直帶風向08/04 11:03
163FJeff911: 特黑怎麼動不動就牙起來? 這種恨意是怎麼來的.挺好笑的08/04 11:07
應該是特粉動不動就到處引戰 戰不過人就檢舉崩潰 不認同特粉的邏輯就被歸類為特黑 這種行為跟邪教沒兩樣 挺好笑的
164Fsquall410339: 整天吹自己比其他車多屌多屌出事了當然針對你啊不然08/04 11:56
165Fsquall410339: 針對誰08/04 11:56
166Ftw70126: 機車超速跟事故是兩件事,汽車全責吧08/04 12:06
※ 編輯: Sturmvogel (114.45.16.28 臺灣), 08/04/2020 12:35:33 ※ 編輯: Sturmvogel (114.45.16.28 臺灣), 08/04/2020 12:48:12
167FJeff911: 好像小孩在回文,加油啦 哈哈 08/04 13:05
你除了打哈哈 好像從來也講不出個東西 加油 哈哈
168FLeeAnAn: 樓上不正是你自己口中的小孩嗎?好意思說別人08/04 13:31
※ 編輯: Sturmvogel (114.45.16.28 臺灣), 08/04/2020 13:32:05
169Fs3f4e9g6aa7: 好了啦08/04 13:58
170Fhshshs66384: 這發文的智商lul08/04 14:13
智商怎樣? 講啊 沒種講是不是? 諒你這種貨色也不敢講 你還能幹嘛? 你還有什麼用? ※ 編輯: Sturmvogel (114.45.16.28 臺灣), 08/04/2020 14:47:12
171FLeeAnAn: 原PO戰力真的猛,數據+邏輯 08/04 16:20
謝謝 一邊是神教新人類 一邊是重機剎利帝 我也是很累的 ※ 編輯: Sturmvogel (114.45.16.28 臺灣), 08/04/2020 16:30:05
172Fhshshs66384: 真的,跟一個平常只會跳針,google自己想看的數據的 08/04 17:41
173Fhshshs66384: 人說什麼都沒用08/04 17:41
你說教主?
174FGHowPan: 體感重機過彎車速大概80~90,過彎後補個油門也是很正常08/04 18:43
※ 編輯: Sturmvogel (114.45.16.28 臺灣), 08/04/2020 19:06:58
175Fzx2767842: 再超啊… 希望騎士早日康復 08/04 19:38
176Fbetkuz: 特這種開法就算是開車,99%閃不過 08/05 20:00

car 最新熱門文章

29 [問題] 美國留學生新手買車
77 car 2020-09-18 20:12
20 [菜單] Skoda Fabia 20年式
51 car 2020-09-18 15:10
19 [問題] 要出保嗎?
45 car 2020-09-18 13:14
32 [討論] 這台Maybach要多少
38 car 2020-09-18 12:51